Regional Weather Roundup
Issued by NWS

Home | Current Version | Previous Version | Text Only | Print | Product List | Glossary On
Versions: 1 2 3 4 5 6 7 8 9 10 11 12 13 14 15 16 17 18 19 20 21 22 23 24 25 26 27 28 29 30 31 32 33 34 35 36 37 38 39 40 41 42 43 44 45 46 47 48 49 50
000
ASUS43 KOAX 191802
RWRNE

WEATHER ROUNDUP FOR NEBRASKA
NATIONAL WEATHER SERVICE OMAHA NE
1200 PM CST THU JAN 19 2017

NOTES: SATELLITE DATA IS BEING USED TO AUGMENT CLOUD COVER ABOVE
       12000 FEET.
       "FAIR" INDICATES FEW OR NO CLOUDS BELOW 12,000 FEET WITH NO
       SIGNIFICANT WEATHER AND/OR OBSTRUCTIONS TO VISIBILITY.

  * THESE STATIONS DO NOT REPORT WEATHER SUCH AS RAIN...SNOW OR FOG.

NEZ001>004-019>022-054>056-191900-
NEBRASKA PANHANDLE

CITY           SKY/WX    TMP DP  RH WIND       PRES   REMARKS
SCOTTSBLUFF    SUNNY     43  27  53 CALM      29.57F
6HR MIN TEMP:  21; 6HR MAX TEMP:  43;

ALLIANCE       SUNNY     46  26  45 W7        29.55F
6HR MIN TEMP:  11; 6HR MAX TEMP:  46;

CHADRON        SUNNY     38  23  55 SW10      29.54F WCI  31
6HR MIN TEMP:  16; 6HR MAX TEMP:  38;

KIMBALL        SUNNY     46  31  57 CALM      29.59F
SIDNEY         SUNNY     46  27  47 W5        29.58F
6HR MIN TEMP:  18; 6HR MAX TEMP:  46;

$$

NEZ057>060-069>072-079>082-191900-
SOUTHWEST NEBRASKA

CITY           SKY/WX    TMP DP  RH WIND       PRES   REMARKS
NORTH PLATTE   FOG       35  34  96 W7        29.63F VSB 1/2 WCI  29
6HR MIN TEMP:  31; 6HR MAX TEMP:  35;

IMPERIAL       SUNNY     35  28  75 SE6       29.62F WCI  30
6HR MIN TEMP:  20; 6HR MAX TEMP:  36;

LEXINGTON      FOG       40  39  95 CALM      29.62F VSB 1/2
MCCOOK         CLOUDY    38  38 100 CALM      29.63F FOG
6HR MIN TEMP:  34; 6HR MAX TEMP:  38;

OGALLALA       SUNNY     36  28  73 CALM      29.60F
$$

NEZ005>010-023>029-035>040-094-191900-
NORTH CENTRAL NEBRASKA

CITY           SKY/WX    TMP DP  RH WIND       PRES   REMARKS
VALENTINE      SUNNY     50  21  32 SW14      29.54F
6HR MIN TEMP:  22; 6HR MAX TEMP:  50;

AINSWORTH      CLOUDY    36  36 100 S14       29.57F FOG     WCI  27
BROKEN BOW     CLOUDY    40  40 100 S8        29.61F FOG     WCI  34
6HR MIN TEMP:  37; 6HR MAX TEMP:  40;

O`NEILL        CLOUDY    42  42  99 S15       29.61F
ORD            CLOUDY    39  38  96 SE7       29.62F FOG     WCI  34
6HR MIN TEMP:  36; 6HR MAX TEMP:  39;

THEDFORD       CLOUDY    33  32  99 S12       29.60F FOG     WCI  24
$$

NEZ041-046>049-061>064-073>077-083>087-191900-
SOUTH CENTRAL NEBRASKA

CITY           SKY/WX    TMP DP  RH WIND       PRES   REMARKS
GRAND ISLAND   CLOUDY    40  40 100 SE7       29.66F FOG
6HR MIN TEMP:  36; 6HR MAX TEMP:  40;

AURORA         FOG       39  39 100 SE9       29.67F VSB 1/2 WCI  33
HASTINGS       FOG       41  40  96 SE9       29.67F VSB 1/2
6HR MIN TEMP:  37; 6HR MAX TEMP:  41;

HEBRON         CLOUDY    42  42  99 SE7       29.69F FOG
HOLDREGE       CLOUDY    42  41  97 S7        29.63F FOG
KEARNEY *      CLOUDY    41  39  93 S8        29.65S
YORK           FOG       39  39 100 SE12      29.69F VSB 3/4 WCI  32
$$

NEZ011>018-030>034-042>045-191900-
NORTHEAST NEBRASKA

CITY           SKY/WX    TMP DP  RH WIND       PRES   REMARKS
NORFOLK        CLOUDY    38  37  97 SE10      29.67F FOG     WCI  31
6HR MIN TEMP:  35; 6HR MAX TEMP:  40;

ALBION         FOG       37  37 100 SE7       29.67F VSB 1/4 WCI  32
BLAIR          FOG       41  40  97 SE8       29.73F VSB 1
FREMONT        CLOUDY    39  39 100 SE8       29.73F FOG     WCI  34
TEKAMAH        CLOUDY    37  35  92 SE7       29.74F FOG     WCI  32
6HR MIN TEMP:  32; 6HR MAX TEMP:  37;

WAYNE          CLOUDY    40  39  99 S12       29.69F FOG     WCI  32
$$

NEZ050>053-065>068-078-088>093-191900-
SOUTHEAST NEBRASKA

CITY           SKY/WX    TMP DP  RH WIND       PRES   REMARKS
LINCOLN        CLOUDY    42  41  96 SE8       29.73F FOG
6HR MIN TEMP:  31; 6HR MAX TEMP:  42;

OMAHA EPPLEY   CLOUDY    41  38  89 SE10      29.76F FOG
6HR MIN TEMP:  30; 6HR MAX TEMP:  42;

BEATRICE       CLOUDY    43  42  96 SE7       29.72F FOG
FALLS CITY     FOG       44  43  96 SE6       29.75F VSB 1/2
6HR MIN TEMP:  35; 6HR MAX TEMP:  44;

NEBRASKA CITY  FOG       41  41 100 SE5       29.75F VSB<1/4
PLATTSMOUTH    FOG       41  39  91 SE6       29.75F VSB 3/4
$$

NEZ044-045-051>053-067-191900-
OMAHA AREA

CITY           SKY/WX    TMP DP  RH WIND       PRES   REMARKS
OMAHA EPPLEY   CLOUDY    41  38  89 SE10      29.76F FOG
6HR MIN TEMP:  30; 6HR MAX TEMP:  42;

BLAIR          FOG       41  40  97 SE8       29.73F VSB 1
FREMONT        CLOUDY    39  39 100 SE8       29.73F FOG     WCI  34
MILLARD        CLOUDY    42  40  96 SE8       29.75F FOG
PLATTSMOUTH    FOG       41  39  91 SE6       29.75F VSB 3/4
WAHOO          FOG       38  37  97 SE8       29.73F VSB 1/4 WCI  32
$$



USA.gov is the U.S. government's official web portal to all federal, state and local government web resources and services.